• In Portugal
  • List of Countries
  • For 7 days
  • Water Temperature
  • Satellite Maps
  • Weather Map
  • Weather Widgets
  • user-avatar
    Login

    Hourly Weather Belmopan

    Today, 23 September, Sunday

    Time Temperature Precipitation Wind Pressure Humidity
    00:00 +23°C° 0 mm 0 mps 751 mmHg 98%
    01:00 +23°C° 0 mm 0 mps 751 mmHg 98%
    02:00 +23°C° 0 mm 0 mps 751 mmHg 98%
    03:00 +23°C° 0 mm 0 mps 750 mmHg 98%
    04:00 +23°C° 0 mm 0 mps 750 mmHg 98%
    05:00 +23°C° 0 mm 0 mps 750 mmHg 98%
    06:00 +23°C° 0 mm 0 mps 750 mmHg 99%
    07:00 +25°C° 0.1 mm 0 mps 751 mmHg 91%
    08:00 +29°C° 0.1 mm 1 mps 751 mmHg 83%
    09:00 +31°C° 0.1 mm 1 mps 751 mmHg 75%
    10:00 +31°C° 0.8 mm 1 mps 751 mmHg 79%
    11:00 +31°C° 0.8 mm 1 mps 751 mmHg 83%
    12:00 +31°C° 0.8 mm 2 mps 751 mmHg 86%
    13:00 +31°C° 0.8 mm 2 mps 750 mmHg 82%
    14:00 +31°C° 0.8 mm 2 mps 750 mmHg 79%
    15:00 +32°C° 0.8 mm 2 mps 749 mmHg 75%
    16:00 +30°C° 0.3 mm 2 mps 749 mmHg 79%
    17:00 +29°C° 0.3 mm 2 mps 749 mmHg 83%
    18:00 +28°C° 0.3 mm 1 mps 750 mmHg 87%
    19:00 +27°C° 0.3 mm 1 mps 750 mmHg 91%
    20:00 +26°C° 0.3 mm 1 mps 750 mmHg 94%
    21:00 +26°C° 0.3 mm 1 mps 751 mmHg 98%
    22:00 +24°C° 0 mm 0 mps 751 mmHg 98%
    23:00 +24°C° 0 mm 0 mps 751 mmHg 98%

    Tomorrow, 24 September, Monday

    Time Temperature Precipitation Wind Pressure Humidity
    00:00 +23°C° 0 mm 0 mps 751 mmHg 98%
    01:00 +23°C° 1.3 mm 0 mps 751 mmHg 98%
    02:00 +23°C° 1.3 mm 0 mps 750 mmHg 99%
    03:00 +23°C° 1.3 mm 0 mps 750 mmHg 99%
    04:00 +23°C° 2.5 mm 0 mps 750 mmHg 99%
    05:00 +23°C° 2.5 mm 0 mps 750 mmHg 99%
    06:00 +23°C° 2.5 mm 0 mps 751 mmHg 99%
    07:00 +24°C° 2.5 mm 0 mps 751 mmHg 99%
    08:00 +24°C° 2.5 mm 0 mps 752 mmHg 98%
    09:00 +24°C° 2.5 mm 0 mps 752 mmHg 98%
    10:00 +24°C° 1.2 mm 0 mps 752 mmHg 97%
    11:00 +25°C° 1.2 mm 0 mps 752 mmHg 96%
    12:00 +27°C° 1.2 mm 1 mps 752 mmHg 95%
    13:00 +27°C° 0.2 mm 1 mps 752 mmHg 93%
    14:00 +27°C° 0.2 mm 1 mps 751 mmHg 91%
    15:00 +28°C° 0.2 mm 1 mps 750 mmHg 89%
    16:00 +27°C° 0.1 mm 1 mps 750 mmHg 92%
    17:00 +26°C° 0.1 mm 1 mps 750 mmHg 95%
    18:00 +26°C° 0.1 mm 1 mps 750 mmHg 98%
    19:00 +26°C° 0 mm 1 mps 751 mmHg 98%
    20:00 +25°C° 0 mm 1 mps 752 mmHg 98%
    21:00 +23°C° 0 mm 0 mps 752 mmHg 99%
    22:00 +23°C° 0 mm 0 mps 752 mmHg 99%
    23:00 +23°C° 0 mm 0 mps 752 mmHg 99%

    Day after tomorrow, 25 September, Tuesday

    Time Temperature Precipitation Wind Pressure Humidity
    00:00 +23°C° 0 mm 0 mps 752 mmHg 98%
    01:00 +23°C° 0.3 mm 0 mps 751 mmHg 99%
    02:00 +23°C° 0.3 mm 0 mps 751 mmHg 99%
    03:00 +23°C° 0.3 mm 0 mps 751 mmHg 99%
    04:00 +23°C° 0.7 mm 0 mps 751 mmHg 99%
    05:00 +23°C° 0.7 mm 0 mps 751 mmHg 99%
    06:00 +23°C° 0.7 mm 0 mps 751 mmHg 99%
    07:00 +24°C° 0.4 mm 0 mps 752 mmHg 96%
    08:00 +27°C° 0.4 mm 1 mps 752 mmHg 94%
    09:00 +28°C° 0.4 mm 1 mps 753 mmHg 91%
    10:00 +30°C° 0.5 mm 1 mps 753 mmHg 85%
    11:00 +31°C° 0.5 mm 2 mps 752 mmHg 78%
    12:00 +32°C° 0.5 mm 2 mps 752 mmHg 72%
    13:00 +32°C° 0.8 mm 2 mps 751 mmHg 73%
    14:00 +32°C° 0.8 mm 2 mps 751 mmHg 75%
    15:00 +31°C° 0.8 mm 2 mps 750 mmHg 76%
    16:00 +30°C° 0 mm 2 mps 750 mmHg 79%
    17:00 +29°C° 0 mm 2 mps 750 mmHg 83%
    18:00 +28°C° 0 mm 1 mps 751 mmHg 86%
    19:00 +27°C° 0.2 mm 1 mps 751 mmHg 90%
    20:00 +27°C° 0.2 mm 1 mps 752 mmHg 94%
    21:00 +26°C° 0.2 mm 1 mps 752 mmHg 98%
    22:00 +26°C° 0.2 mm 1 mps 752 mmHg 98%
    23:00 +26°C° 0.2 mm 1 mps 752 mmHg 98%

    26 September, Wednesday

    Time Temperature Precipitation Wind Pressure Humidity
    00:00 +26°C° 0.2 mm 1 mps 752 mmHg 99%
    01:00 +26°C° 0.2 mm 1 mps 751 mmHg 99%
    02:00 +26°C° 0.2 mm 1 mps 751 mmHg 99%
    03:00 +26°C° 0.2 mm 1 mps 750 mmHg 99%
    04:00 +26°C° 0.8 mm 1 mps 751 mmHg 99%
    05:00 +26°C° 0.8 mm 1 mps 751 mmHg 99%
    06:00 +26°C° 0.8 mm 1 mps 751 mmHg 99%
    07:00 +26°C° 1.2 mm 1 mps 752 mmHg 97%
    08:00 +27°C° 1.2 mm 1 mps 752 mmHg 96%
    09:00 +28°C° 1.2 mm 1 mps 753 mmHg 94%
    10:00 +28°C° 0.6 mm 1 mps 752 mmHg 93%
    11:00 +29°C° 0.6 mm 1 mps 752 mmHg 91%
    12:00 +29°C° 0.6 mm 2 mps 752 mmHg 89%
    13:00 +29°C° 0.5 mm 1 mps 751 mmHg 89%
    14:00 +29°C° 0.5 mm 1 mps 750 mmHg 88%
    15:00 +29°C° 0.5 mm 1 mps 749 mmHg 88%
    16:00 +28°C° 0.5 mm 1 mps 750 mmHg 90%
    17:00 +28°C° 0.5 mm 1 mps 750 mmHg 92%
    18:00 +27°C° 0.5 mm 1 mps 750 mmHg 95%
    19:00 +26°C° 0.4 mm 1 mps 751 mmHg 96%
    20:00 +26°C° 0.4 mm 1 mps 751 mmHg 97%
    21:00 +26°C° 0.4 mm 1 mps 752 mmHg 98%
    22:00 +26°C° 0.8 mm 1 mps 751 mmHg 99%
    23:00 +26°C° 0.8 mm 1 mps 751 mmHg 99%

    27 September, Thursday

    Time Temperature Precipitation Wind Pressure Humidity
    00:00 +23°C° 0.8 mm 0 mps 751 mmHg 99%
    01:00 +23°C° 0.7 mm 0 mps 750 mmHg 99%
    02:00 +23°C° 0.7 mm 0 mps 750 mmHg 99%
    03:00 +23°C° 0.7 mm 0 mps 750 mmHg 99%
    04:00 +23°C° 0.9 mm 0 mps 750 mmHg 99%
    05:00 +23°C° 0.9 mm 0 mps 750 mmHg 99%
    06:00 +23°C° 0.9 mm 0 mps 751 mmHg 99%
    07:00 +26°C° 0.9 mm 1 mps 751 mmHg 96%
    08:00 +27°C° 0.9 mm 1 mps 752 mmHg 93%
    09:00 +28°C° 0.9 mm 1 mps 752 mmHg 90%
    10:00 +28°C° 0.7 mm 1 mps 752 mmHg 90%
    11:00 +29°C° 0.7 mm 1 mps 751 mmHg 90%
    12:00 +29°C° 0.7 mm 1 mps 751 mmHg 90%
    13:00 +29°C° 0.2 mm 1 mps 750 mmHg 86%
    14:00 +30°C° 0.2 mm 1 mps 750 mmHg 82%
    15:00 +30°C° 0.2 mm 1 mps 749 mmHg 77%
    16:00 +29°C° 0.1 mm 1 mps 749 mmHg 82%
    17:00 +28°C° 0.1 mm 1 mps 750 mmHg 87%
    18:00 +27°C° 0.1 mm 1 mps 750 mmHg 92%
    19:00 +27°C° 0 mm 1 mps 751 mmHg 94%
    20:00 +27°C° 0 mm 1 mps 751 mmHg 96%
    21:00 +26°C° 0 mm 1 mps 752 mmHg 98%
    22:00 +26°C° 0.2 mm 1 mps 751 mmHg 99%
    23:00 +26°C° 0.2 mm 1 mps 751 mmHg 99%

    28 September, Friday

    Time Temperature Precipitation Wind Pressure Humidity
    00:00 +26°C° 0.2 mm 1 mps 751 mmHg 99%
    01:00 +26°C° 0.2 mm 1 mps 751 mmHg 99%
    02:00 +26°C° 0.2 mm 1 mps 750 mmHg 99%
    03:00 +24°C° 0.2 mm 0 mps 750 mmHg 99%
    04:00 +24°C° 0.1 mm 0 mps 751 mmHg 99%
    05:00 +24°C° 0.1 mm 0 mps 751 mmHg 99%
    06:00 +24°C° 0.1 mm 0 mps 751 mmHg 99%
    07:00 +27°C° 0.5 mm 1 mps 752 mmHg 96%
    08:00 +28°C° 0.5 mm 1 mps 752 mmHg 93%
    09:00 +29°C° 0.5 mm 1 mps 753 mmHg 90%
    10:00 +30°C° 0.8 mm 2 mps 752 mmHg 85%
    11:00 +31°C° 0.8 mm 2 mps 752 mmHg 81%
    12:00 +31°C° 0.8 mm 2 mps 751 mmHg 77%
    13:00 +31°C° 0.7 mm 2 mps 751 mmHg 78%
    14:00 +31°C° 0.7 mm 2 mps 750 mmHg 78%
    15:00 +31°C° 0.7 mm 2 mps 750 mmHg 79%
    16:00 +30°C° 0.3 mm 2 mps 750 mmHg 83%
    17:00 +28°C° 0.3 mm 1 mps 751 mmHg 87%
    18:00 +27°C° 0.3 mm 1 mps 751 mmHg 91%
    19:00 +27°C° 0.1 mm 1 mps 752 mmHg 94%
    20:00 +26°C° 0.1 mm 1 mps 752 mmHg 96%
    21:00 +26°C° 0.1 mm 1 mps 752 mmHg 99%
    22:00 +24°C° 0.1 mm 0 mps 752 mmHg 99%
    23:00 +24°C° 0.1 mm 0 mps 752 mmHg 99%
    Show more